Wind_Speed
13 12 9 8 9 10 8 8 5 6 8 4 5 7 9 11 11 12 13 14 15 16 16 16 15 15 15 15 16 16 15 15 15 14 12 10 8 7 6 4 4 4 5 6
14 12 12 13 12 12 10 8 5 7 8 5 5 6 8 11 11 11 12 13 14 15 15 15 15 15 15 15 16 16 16 16 15 14 13 11 10 8 7 6 5 5 5 5
15 13 15 15 14 12 10 9 8 9 9 7 6 8 8 9 12 11 11 12 12 13 14 15 15 15 15 15 16 16 16 16 15 14 12 12 12 10 8 8 7 5 5 5
18 17 17 16 16 14 11 10 11 10 9 8 8 11 13 9 11 12 11 11 11 12 13 14 15 15 15 15 16 16 16 16 16 15 13 13 12 11 10 9 7 6 6 6
21 20 20 18 17 16 14 13 12 12 11 9 8 11 15 12 10 11 11 11 11 12 13 14 15 15 15 15 15 16 16 16 16 16 14 13 13 12 11 10 9 8 7 6
23 21 21 20 20 18 17 15 13 11 11 12 9 10 14 12 11 10 10 11 11 11 12 13 13 14 14 15 15 16 16 17 16 16 15 14 13 13 12 11 9 9 9 8
25 23 22 21 20 19 18 15 12 12 11 11 9 11 14 14 12 11 12 12 12 11 12 12 12 13 14 14 15 16 16 17 16 16 16 14 13 13 13 12 10 9 9 10
23 23 22 23 21 19 19 17 15 13 11 11 11 12 13 16 15 14 14 13 13 12 11 12 12 13 14 14 15 15 16 16 17 16 16 15 14 13 13 12 11 11 10 10
22 20 20 22 22 22 20 19 16 15 14 14 14 11 14 18 17 16 14 14 13 12 12 12 12 12 13 14 15 15 16 16 16 16 15 15 14 13 13 12 12 12 12 11
26 24 21 22 23 25 22 20 18 19 19 18 15 14 16 18 17 16 14 14 14 13 12 12 12 12 13 14 14 15 16 16 16 16 15 15 15 14 14 13 13 13 13 12
29 28 25 24 25 24 24 23 23 22 20 18 16 16 18 19 19 17 15 16 15 14 13 13 12 12 12 13 14 15 15 15 15 15 15 15 16 16 15 15 15 15 14 14
32 30 29 28 26 24 24 23 23 24 25 23 19 17 15 15 17 16 15 17 17 15 15 15 15 12 14 14 14 15 16 16 16 15 16 16 16 16 16 17 17 16 16 16
33 34 33 30 28 26 27 25 24 25 24 23 21 20 18 17 18 20 18 19 19 17 16 17 16 15 15 16 16 16 16 16 16 16 16 17 17 17 17 18 19 19 19 18
35 36 35 32 28 26 26 27 26 26 26 25 23 22 22 21 20 20 21 21 21 20 18 19 18 17 17 17 17 17 17 17 17 17 18 17 17 18 18 19 19 20 20 19
39 39 38 36 32 28 27 27 26 28 29 27 24 24 23 24 23 24 24 23 23 22 21 20 20 20 18 18 18 18 19 19 19 18 18 18 19 19 19 20 21 21 21 20
40 41 40 39 37 33 31 29 27 27 28 28 26 25 25 26 25 27 27 25 24 23 23 23 22 22 21 20 20 20 20 20 21 20 19 19 20 20 21 22 23 23 24 23
39 41 42 41 38 36 37 32 29 28 28 28 28 27 26 28 29 30 29 27 25 25 25 25 24 24 23 23 22 22 22 22 22 22 21 21 22 22 23 23 24 25 26 26
41 41 42 41 38 39 38 33 31 30 31 30 31 31 32 33 32 34 33 31 28 27 27 27 26 26 25 25 25 24 24 24 24 24 24 24 25 25 25 25 26 26 27 28
43 42 42 42 40 40 37 35 33 32 33 33 33 34 35 34 34 35 35 32 30 30 29 28 28 28 27 26 27 27 26 27 27 27 27 27 28 28 28 28 29 29 30 30
43 42 43 43 41 38 36 34 34 34 36 36 35 36 36 35 34 36 35 33 32 31 30 29 29 30 29 29 29 29 29 29 30 30 30 29 29 30 31 31 31 32 33 32
42 42 43 44 43 41 36 34 35 38 40 39 38 38 38 38 38 37 36 34 32 32 30 30 31 31 31 32 31 31 31 31 32 32 32 32 32 33 34 34 34 34 34 34
39 40 42 43 43 40 40 38 39 40 40 40 40 40 40 39 39 38 37 34 33 32 32 32 33 33 33 33 33 32 32 33 33 34 35 34 35 36 36 36 36 37 36 36
37 38 39 42 44 44 42 44 44 42 41 40 40 41 41 40 40 39 37 37 36 35 35 35 35 35 35 35 35 34 34 35 35 36 36 37 37 38 38 38 38 38 39 38
37 37 39 40 43 45 44 43 44 44 43 42 41 41 41 40 39 39 38 38 37 37 37 37 37 38 38 37 37 37 36 37 38 38 38 38 39 39 40 40 40 39 39 39
35 37 39 41 42 44 46 46 44 45 44 44 43 42 41 41 40 40 40 39 39 38 38 38 38 38 38 39 38 38 38 39 39 39 39 39 40 41 41 41 41 40 40 40
35 36 38 41 42 42 43 44 43 44 45 44 44 44 43 43 43 42 42 40 39 40 40 40 40 40 40 40 40 39 40 40 40 40 40 40 41 41 41 41 41 40 40 40
Wind_Direction
204 197 196 212 226 234 217 221 229 260 281 288 306 325 332 338 347 357 3 10 15 20 22 24 23 23 24 23 22 20 19 19 17 17 16 17 12 4 355 338 307 284 270 266
212 213 211 216 225 230 224 222 235 265 275 268 274 305 320 327 336 346 354 2 10 16 19 21 20 19 19 19 18 18 16 15 13 14 13 12 9 5 358 353 333 307 284 272
214 218 227 225 227 227 227 231 228 240 266 285 286 288 291 310 322 333 345 354 1 10 14 15 15 14 14 13 13 13 13 13 11 11 10 9 6 2 358 350 341 328 312 294
221 223 230 230 229 224 228 237 239 235 246 264 277 287 297 288 304 320 333 345 352 1 6 9 9 9 9 10 11 11 10 10 8 8 7 5 2 358 355 350 341 339 332 309
223 224 228 228 228 225 223 228 237 237 242 251 256 278 288 288 289 306 324 337 343 350 356 360 3 5 6 7 8 6 7 7 7 6 5 2 359 357 354 352 344 343 339 326
224 225 228 230 229 226 226 228 238 240 241 250 247 259 276 283 281 289 307 320 325 336 344 350 355 358 1 3 4 4 5 5 4 4 3 0 358 357 353 350 347 343 343 338
228 227 228 229 230 229 229 228 236 248 252 261 252 248 259 267 276 284 290 298 306 319 331 338 346 351 353 358 360 2 2 2 2 1 360 358 357 357 357 354 351 347 343 340
233 234 234 232 229 228 230 225 227 239 256 272 251 242 253 264 269 269 273 282 294 305 318 323 332 344 344 349 355 357 358 359 359 359 358 357 356 357 356 355 354 350 345 340
227 237 244 244 233 227 227 226 226 240 251 263 270 261 252 261 270 275 273 275 284 294 303 314 325 334 339 343 349 351 353 355 356 356 356 357 355 354 356 355 352 348 345 341
220 223 224 236 237 230 225 226 226 231 242 249 254 260 257 264 271 277 276 271 272 279 290 301 312 320 330 336 341 344 346 348 351 353 355 355 354 351 351 351 349 345 341 337
221 224 223 227 235 234 230 225 224 227 230 239 250 256 255 256 264 272 274 273 277 285 288 292 298 309 320 327 332 336 339 341 344 348 350 352 353 352 348 346 344 341 338 336
225 226 227 228 233 236 233 231 229 230 229 226 235 251 260 264 266 270 270 271 271 279 282 289 297 305 313 317 324 328 332 334 336 339 343 345 345 346 346 346 344 341 338 336
226 227 229 228 230 233 232 231 230 231 236 235 235 243 248 255 259 265 264 265 269 272 278 284 295 302 305 310 315 320 324 326 328 330 333 337 337 339 340 341 341 340 339 336
228 227 226 226 228 231 236 235 232 230 232 238 238 244 248 252 252 255 261 261 265 267 269 276 285 290 296 303 307 312 315 316 319 322 325 327 329 331 331 333 334 333 332 331
229 228 227 224 222 224 230 236 234 231 231 232 237 240 246 252 256 255 258 263 264 266 267 270 275 282 288 293 297 302 306 309 311 314 317 320 321 323 325 326 327 327 328 328
232 230 229 228 225 226 229 230 232 232 234 232 233 237 240 247 250 253 255 257 262 266 267 268 271 276 282 286 289 292 297 301 304 307 309 314 316 317 317 319 321 322 322 322
235 233 232 231 230 230 231 229 232 236 236 234 234 237 242 245 246 253 257 258 262 265 264 265 267 272 276 281 284 287 289 294 297 299 302 306 309 311 312 313 315 318 320 320
233 233 234 234 231 233 232 230 231 235 237 236 235 235 239 243 248 253 256 258 261 263 263 265 267 270 272 277 281 283 285 288 291 292 294 298 301 305 307 309 311 312 315 317
236 236 235 234 234 235 234 232 231 234 236 234 236 237 240 243 248 253 256 256 260 260 262 264 266 270 272 274 279 281 283 285 286 287 289 292 295 299 302 305 309 310 313 313
236 237 236 235 234 235 236 234 232 234 237 235 235 237 240 241 245 251 256 259 261 261 259 262 265 268 271 274 276 278 280 282 283 285 287 290 293 297 300 303 305 308 309 310
234 235 236 236 236 235 233 232 231 233 235 236 237 238 239 241 245 249 254 259 261 260 260 262 264 266 269 272 275 277 278 279 281 283 286 288 291 295 297 301 302 304 307 307
236 236 236 236 235 235 234 234 233 233 235 236 237 240 242 244 247 250 252 255 258 261 263 264 264 265 268 271 273 276 277 278 279 281 283 286 289 292 295 298 300 302 303 305
233 233 235 236 235 234 235 234 236 237 237 238 239 242 244 245 247 251 252 254 255 258 261 263 264 265 267 269 272 274 276 276 277 279 281 284 287 289 292 294 296 298 300 302
232 230 228 231 234 235 235 235 236 237 239 239 241 243 246 247 248 251 253 255 256 257 259 262 264 266 267 269 270 272 275 275 276 277 279 282 284 287 289 291 292 294 296 298
231 230 229 231 234 235 234 237 237 236 237 240 241 242 246 249 251 252 254 256 256 257 259 261 264 266 267 269 270 272 273 275 276 276 277 279 283 285 288 290 291 292 293 296
229 228 227 229 232 233 235 237 238 238 239 240 243 244 246 249 251 253 255 257 256 258 259 261 263 266 267 268 270 272 273 274 275 276 278 279 282 284 286 288 289 290 291 293
Height
5933 5937 5939 5943 5945 5946 5948 5950 5951 5951 5949 5948 5947 5946 5944 5941 5940 5937 5935 5933 5931 5929 5927 5925 5923 5921 5919 5917 5915 5913 5910 5909 5907 5905 5903 5902 5901 5899 5899 5898 5898 5898 5898 5898
5933 5935 5938 5940 5943 5943 5946 5948 5949 5950 5949 5948 5948 5947 5945 5942 5940 5939 5937 5934 5932 5930 5928 5926 5924 5922 5920 5918 5916 5914 5912 5910 5908 5906 5904 5903 5901 5900 5899 5898 5897 5897 5897 5897
5930 5935 5937 5938 5940 5942 5944 5946 5948 5949 5948 5946 5946 5946 5944 5943 5941 5939 5937 5935 5933 5931 5930 5928 5925 5923 5922 5920 5918 5916 5914 5911 5909 5907 5905 5903 5902 5900 5899 5898 5897 5896 5896 5896
5927 5931 5934 5936 5938 5940 5943 5945 5945 5946 5946 5946 5947 5946 5943 5941 5940 5939 5937 5935 5934 5932 5930 5928 5926 5924 5923 5921 5919 5917 5915 5912 5910 5908 5906 5904 5902 5901 5899 5898 5897 5896 5896 5895
5924 5927 5930 5932 5935 5937 5939 5941 5942 5943 5943 5944 5945 5945 5943 5940 5938 5938 5937 5935 5934 5932 5931 5929 5927 5925 5923 5921 5920 5918 5915 5913 5911 5909 5907 5905 5903 5901 5899 5898 5897 5896 5895 5895
5919 5923 5926 5929 5931 5933 5935 5937 5938 5939 5941 5942 5944 5945 5942 5939 5937 5935 5935 5935 5934 5933 5931 5929 5928 5926 5924 5922 5920 5918 5916 5914 5912 5909 5907 5905 5903 5901 5899 5898 5896 5896 5895 5894
5915 5918 5921 5924 5927 5929 5932 5934 5937 5938 5939 5939 5941 5943 5941 5939 5938 5937 5936 5935 5933 5932 5931 5929 5928 5926 5924 5922 5921 5919 5917 5914 5912 5910 5908 5905 5903 5901 5899 5897 5896 5896 5895 5894
5911 5914 5917 5920 5922 5926 5928 5931 5934 5936 5938 5937 5937 5939 5938 5937 5936 5936 5935 5934 5932 5931 5930 5928 5927 5926 5924 5922 5920 5919 5917 5915 5913 5910 5908 5905 5903 5901 5900 5898 5897 5895 5894 5893
5908 5912 5915 5915 5918 5921 5924 5927 5931 5934 5935 5936 5935 5936 5935 5933 5933 5933 5932 5932 5931 5930 5929 5927 5926 5925 5923 5922 5920 5919 5917 5915 5913 5910 5908 5906 5904 5902 5900 5898 5896 5895 5893 5892
5901 5905 5909 5912 5913 5916 5919 5923 5927 5929 5931 5933 5935 5934 5932 5930 5930 5930 5930 5929 5928 5926 5925 5925 5925 5924 5923 5921 5920 5918 5916 5915 5913 5910 5908 5906 5903 5901 5899 5898 5896 5894 5892 5891
5894 5899 5903 5906 5908 5911 5914 5918 5920 5924 5926 5929 5931 5933 5928 5926 5927 5927 5927 5926 5925 5924 5923 5922 5921 5921 5921 5920 5919 5917 5916 5914 5912 5910 5908 5906 5904 5901 5899 5897 5895 5893 5891 5889
5888 5892 5895 5900 5903 5906 5909 5912 5916 5919 5920 5922 5925 5929 5923 5923 5923 5924 5924 5923 5922 5922 5921 5920 5918 5918 5919 5918 5917 5916 5915 5913 5911 5910 5908 5905 5903 5901 5899 5897 5895 5893 5890 5888
5881 5884 5888 5893 5899 5901 5902 5906 5909 5913 5916 5917 5921 5924 5921 5920 5921 5920 5921 5920 5918 5919 5919 5917 5915 5917 5917 5916 5915 5914 5913 5912 5910 5908 5906 5904 5902 5900 5898 5896 5894 5891 5889 5887
5871 5875 5880 5886 5891 5895 5897 5900 5903 5907 5910 5912 5915 5918 5917 5915 5915 5916 5916 5916 5916 5916 5916 5915 5914 5915 5915 5914 5913 5912 5911 5910 5908 5907 5905 5903 5901 5899 5897 5894 5892 5890 5887 5884
5862 5866 5871 5876 5882 5887 5890 5893 5896 5899 5903 5907 5910 5912 5911 5910 5910 5910 5910 5911 5911 5911 5912 5912 5912 5912 5912 5911 5910 5909 5908 5907 5906 5904 5902 5900 5898 5896 5894 5892 5890 5887 5884 5882
5852 5857 5862 5867 5872 5878 5882 5886 5889 5892 5896 5899 5902 5904 5906 5904 5902 5903 5903 5904 5905 5906 5907 5907 5907 5907 5907 5907 5907 5906 5905 5904 5902 5901 5899 5898 5896 5893 5891 5889 5886 5884 5881 5878
5843 5848 5853 5858 5864 5868 5872 5878 5883 5886 5888 5892 5895 5898 5897 5897 5897 5897 5897 5897 5899 5901 5901 5902 5902 5902 5903 5902 5902 5901 5901 5900 5898 5897 5895 5894 5892 5889 5887 5885 5882 5880 5877 5874
5834 5839 5843 5849 5855 5857 5865 5871 5875 5878 5881 5884 5886 5888 5888 5889 5890 5890 5891 5892 5894 5895 5895 5896 5896 5896 5896 5897 5896 5896 5895 5895 5893 5892 5891 5889 5887 5885 5883 5880 5878 5875 5873 5870
5825 5830 5834 5839 5844 5848 5856 5861 5865 5869 5871 5874 5876 5878 5879 5881 5882 5882 5883 5884 5887 5889 5889 5890 5890 5890 5889 5890 5890 5890 5889 5889 5887 5886 5885 5883 5881 5879 5877 5875 5873 5870 5867 5864
5816 5820 5825 5829 5834 5840 5847 5852 5855 5860 5861 5864 5866 5868 5870 5873 5874 5874 5875 5877 5880 5881 5881 5883 5883 5884 5883 5884 5884 5883 5883 5882 5881 5879 5878 5876 5875 5873 5871 5869 5866 5864 5861 5858
5805 5809 5814 5819 5823 5830 5836 5840 5844 5849 5850 5853 5856 5858 5861 5863 5865 5867 5868 5869 5871 5871 5873 5875 5876 5876 5876 5876 5876 5876 5876 5875 5874 5872 5871 5869 5868 5867 5865 5862 5860 5857 5854 5851
5796 5801 5804 5809 5814 5822 5825 5829 5832 5833 5837 5841 5845 5847 5850 5853 5856 5858 5860 5861 5863 5863 5865 5867 5868 5868 5868 5868 5868 5868 5867 5867 5866 5865 5863 5861 5860 5859 5857 5855 5852 5849 5847 5844
5786 5791 5795 5800 5804 5808 5812 5816 5819 5822 5827 5831 5834 5837 5841 5844 5846 5848 5850 5852 5854 5856 5857 5858 5859 5859 5860 5860 5860 5859 5859 5858 5857 5856 5854 5853 5852 5850 5848 5846 5844 5841 5838 5835
5775 5778 5783 5787 5791 5795 5800 5803 5808 5813 5817 5821 5824 5828 5830 5833 5836 5838 5840 5843 5844 5846 5848 5848 5849 5850 5850 5850 5850 5850 5849 5848 5847 5846 5845 5844 5842 5841 5839 5837 5835 5832 5829 5826
5764 5768 5772 5776 5780 5784 5789 5793 5797 5801 5805 5809 5813 5817 5820 5823 5826 5828 5830 5832 5834 5836 5837 5838 5839 5839 5839 5839 5839 5839 5839 5838 5837 5835 5834 5833 5832 5831 5829 5827 5825 5822 5820 5817
5754 5757 5761 5764 5768 5772 5777 5781 5784 5789 5794 5798 5802 5806 5809 5812 5815 5818 5820 5821 5823 5825 5826 5828 5828 5828 5829 5829 5829 5829 5828 5828 5827 5825 5824 5823 5822 5820 5819 5817 5815 5812 5810 5807